[[{"header":{"parameterUnit":"m.s-1","parameterCategory":1,"la1":30.2991,"la2":30.254,"lo1":-89.0895,"lo2":-89.0444,"dx":0.0017,"dy":0.0017,"nx":28,"ny":28,"refTime":"2022-11-03T15:00:00:Z","depth":0,"parameterNumber":2,"parameterNumberName":"U-component_of_WINDS"},"data":[0,0,0,0,0,0,0,0,0,0,0,0,0,0,0,0,0,0,0,0,0,0,0,0,0,0,0,0,0,0,0,0,0,0,0,0,0,0,0,0,0,0,0,0,0,0,0,0,0,0,0,0,0,0,0,0,0,0,-3.8202,-3.8203,0,-3.8264,-3.8265,-3.8266,-3.8222,-3.822,-3.8218,-3.8216,-3.8276,-3.8279,-3.8283,0,0,0,0,0,0,0,0,0,0,0,0,0,-3.8045,-3.8049,-3.8202,-3.8203,-3.8204,-3.8264,-3.8265,-3.8266,-3.8222,-3.822,-3.8217,-3.8215,-3.8275,-3.8279,-3.8283,0,0,0,0,0,0,0,0,0,0,0,0,0,-3.8111,-3.805,-3.8202,-3.8189,-3.8189,-3.8264,-3.8265,-3.8266,-3.8222,-3.8219,-3.8217,-3.8214,-3.8274,-3.8279,-3.8284,-3.8374,0,0,-3.8299,-3.8302,0,0,0,0,0,0,0,0,-3.8107,-3.8117,-3.819,-3.819,-3.819,-3.8232,-3.8232,-3.8302,-3.8223,-3.821,-3.8216,-3.8212,-3.8264,-3.827,-3.8287,-3.8377,-3.838,-3.83,-3.8303,-3.8305,-3.8307,0,0,0,0,0,0,0,-3.8103,-3.8114,-3.8227,-3.8192,-3.8191,-3.818,-3.8186,-3.8245,-3.8252,-3.8211,-3.8207,-3.8216,-3.8263,-3.8283,-3.8289,-3.838,-3.83,-3.8304,-3.8308,-3.831,-3.855,-3.8553,0,0,0,0,0,0,-3.81,-3.811,-3.8225,-3.8229,-3.8141,-3.8186,-3.8192,-3.8222,-3.8251,-3.8253,-3.8218,-3.8213,-3.8275,-3.8283,-3.829,-3.8399,-3.8305,-3.831,-3.8313,-3.8546,-3.855,-3.8554,0,0,0,0,0,0,-3.8097,-3.811,-3.8222,-3.8169,-3.8182,-3.8191,-3.8225,-3.8224,-3.8244,-3.8257,-3.8258,-3.8237,-3.8273,-3.8283,-3.8354,-3.84,-3.8312,-3.8317,-3.8543,-3.8548,-3.8552,-3.8617,0,0,0,0,0,0,-3.8092,-3.811,-3.8144,-3.817,-3.8185,-3.8285,-3.8227,-3.8228,-3.8253,-3.8248,-3.8275,-3.8277,-3.8272,-3.8347,-3.836,-3.8406,-3.8321,-3.8538,-3.8545,-3.8551,-3.861,-3.8623,-3.8634,0,0,0,0,0,-3.8087,-3.8158,-3.8146,-3.816,-3.8228,-3.8288,-3.8297,-3.829,-3.8257,-3.8292,-3.8301,-3.8276,-3.8394,-3.8355,-3.8368,-3.8417,-3.8535,-3.8543,-3.855,-3.8605,-3.8621,-3.8634,0,0,0,0,0,0,-3.8135,-3.8161,-3.8148,-3.823,-3.8257,-3.828,-3.8323,-3.8307,-3.8343,-3.8336,-3.8326,-3.8333,-3.8408,-3.842,-3.8375,-3.8507,-3.8459,-3.847,-3.8496,-3.8511,-3.8523,-3.8518,-3.8325,0,0,0,0,0,-3.8156,-3.8203,-3.8223,-3.8293,-3.8308,-3.8314,-3.834,-3.8333,-3.836,-3.8371,-3.8385,-3.8413,-3.8456,-3.8485,-3.8525,-3.8613,-3.8619,-3.8654,-3.8665,-3.8675,-3.8684,-3.8732,-3.8748,-3.8578,-3.8578,-3.8578,0,0,-3.8197,-3.8218,-3.8247,-3.8304,-3.8324,-3.8373,-3.8324,-3.8376,-3.8412,-3.8379,-3.8447,-3.8459,-3.8489,-3.857,-3.8605,-3.8582,-3.8733,-3.8685,-3.8692,-3.8695,-3.8742,-3.8758,-3.8772,-3.8583,-3.8582,-3.8582,0,0,-3.8299,-3.8319,-3.8381,-3.8403,-3.8436,-3.844,-3.8455,-3.8482,-3.8489,-3.8558,-3.8535,-3.8578,-3.8653,-3.8675,-3.8697,-3.8812,-3.879,-3.8826,-3.8886,-3.8934,-3.8947,-3.8959,-3.9,-3.9015,-3.8834,-3.8835,-3.8835,0,-3.8346,-3.8419,-3.8414,-3.847,-3.8495,-3.847,-3.8533,-3.8555,-3.8599,-3.8617,-3.8591,-3.8686,-3.8704,-3.879,-3.8819,-3.8837,-3.8854,-3.8821,-3.8946,-3.8958,-3.8969,-3.9008,-3.9023,-3.8839,-3.8838,-3.8838,-3.8837,0,-3.8476,-3.8527,-3.8573,-3.8619,-3.865,-3.8709,-3.8713,-3.8745,-3.8737,-3.8744,-3.8816,-3.8838,-3.8884,-3.8904,-3.8895,-3.899,-3.8974,-3.8948,-3.8898,-3.8989,-3.9026,-3.904,-3.8844,-3.8843,-3.8842,-3.8841,0,0,-3.8605,-3.865,-3.8667,-3.8688,-3.8725,-3.8764,-3.8823,-3.8869,-3.8897,-3.893,-3.8978,-3.9045,-3.9021,-3.9046,-3.904,-3.9082,-3.9173,-3.905,-3.9051,-3.9072,-3.9279,-3.9298,-3.9315,-3.916,-3.9163,-3.9165,-3.9276,0,-3.8708,-3.8811,-3.881,-3.8905,-3.8953,-3.8932,-3.8984,-3.9012,-3.9021,-3.9063,-3.9073,-3.912,-3.9086,-3.9101,-3.9142,-3.9153,-3.9214,-3.9145,-3.9205,-3.9207,-3.9196,-3.9334,-3.9353,-3.9457,-3.929,-3.9293,-3.9295,0,-3.884,-3.8879,-3.898,-3.9012,-3.9032,-3.9078,-3.9122,-3.9163,-3.9195,-3.9199,-3.9229,-3.9218,-3.9278,-3.923,-3.9314,-3.9267,-3.9292,-3.9302,-3.9306,-3.931,-3.9255,-3.934,-3.9489,-3.9504,-3.9317,-3.9315,-3.9314,0,-3.8924,-3.9002,-3.9072,-3.9091,-3.913,-3.9164,-3.9181,-3.9211,-3.924,-3.9279,-3.9297,-3.9342,-3.9366,-3.9402,-3.9404,-3.9368,-3.9488,-3.944,-3.9493,-3.9493,-3.9516,-3.9515,-3.967,-3.9536,-3.9535,-3.9535,-3.9535,0,-3.9037,-3.9099,-3.9111,-3.9154,-3.9224,-3.9224,-3.9292,-3.9307,-3.9335,-3.9381,-3.9366,-3.9409,-3.941,-3.9455,-3.9457,-3.9526,-3.9537,-3.9542,-3.9542,-3.9543,-3.9542,-3.9557,-3.9549,-3.9539,-3.9538,-3.9537,-3.9537,0,-3.9141,-3.9151,-3.9227,-3.9259,-3.9269,-3.9319,-3.9347,-3.9388,-3.9398,-3.9457,-3.9471,-3.9486,-3.9538,-3.9545,-3.9605,-3.9607,-3.969,-3.9682,-3.9679,-3.9677,-3.973,-3.9725,-3.9899,-3.9922,-3.9774,-3.9775,-3.9776,0,-3.9212,-3.9259,-3.9298,-3.9329,-3.9349,-3.9398,-3.9429,-3.9431,-3.9463,-3.9506,-3.9543,-3.9594,-3.9635,-3.972,-3.9736,-3.9783,-3.9776,-3.9834,-3.9782,-3.9782,-3.9776,-3.9772,-3.9777,-3.9843,-3.9845,-3.9846,-3.9847,0,-3.9336,-3.934,-3.9385,-3.9433,-3.947,-3.9507,-3.9542,-3.9568,-3.9575,-3.9612,-3.9667,-3.9699,-3.9763,-3.9814,-3.9861,-3.9879,-3.9865,-3.9864,-3.9878,-3.9879,-3.9875,-3.9877,-3.9705,-3.9859,-3.9858,-3.9857,-3.9856,-3.9856,-3.9425,-3.9467,-3.9502,-3.9553,-3.9581,-3.9615,-3.9656,-3.9673,-3.9718,-3.9771,-3.977,-3.983,-3.9864,-3.9926,-3.9949,-3.9996,-3.9976,-3.9997,-4.0002,-4.0007,-4.0012,-3.987,-4.0004,-4.0004,-4.0004,-4.0003,-4.0003,0,-3.9548,-3.9571,-3.9618,-3.9669,-3.971,-3.9696,-3.9735,-3.9769,-3.9823,-3.9856,-3.9898,-3.9962,-4.0012,-4.0034,-4.0084,-4.0118,-4.0113,-4.0131,-4.0127,-4.0132,-4.0027,-4.0009,-4.0134,-4.0134,-4.0134,-4.0134,-4.0134,-4.0134,-3.9617,-3.9688,-3.9697,-3.9782,-3.9804,-3.9864,-3.9887,-3.9919,-3.9946,-4.0018,-4.0061,-4.0076,-4.0106,-4.0158,-4.0205,-4.021,-4.0229,-4.025,-4.0252,-4.0153,-4.0139,-4.0126,-4.0109,-4.0254,-4.0254,-4.0353,-4.0354,-4.0355]},{"header":{"parameterUnit":"m.s-1","parameterCategory":1,"la1":30.2991,"la2":30.254,"lo1":-89.0895,"lo2":-89.0444,"dx":0.0017,"dy":0.0017,"nx":28,"ny":28,"refTime":"2022-11-03T15:00:00:Z","depth":0,"parameterNumber":3,"parameterNumberName":"V-component_of_WINDS"},"data":[0,0,0,0,0,0,0,0,0,0,0,0,0,0,0,0,0,0,0,0,0,0,0,0,0,0,0,0,0,0,0,0,0,0,0,0,0,0,0,0,0,0,0,0,0,0,0,0,0,0,0,0,0,0,0,0,0,0,1.9882,1.9883,0,1.9942,1.9943,1.9943,1.9946,1.9946,1.9945,1.9944,2.0001,2.0003,2.0005,0,0,0,0,0,0,0,0,0,0,0,0,0,1.9768,1.977,1.9882,1.9883,1.9883,1.9942,1.9943,1.9943,1.9946,1.9946,1.9945,1.9944,2.0,2.0003,2.0006,0,0,0,0,0,0,0,0,0,0,0,0,0,1.9821,1.977,1.9882,1.9892,1.9894,1.9942,1.9943,1.9944,1.9947,1.9946,1.9944,1.9944,2.0,2.0003,2.0006,2.0046,0,0,2.0016,2.0017,0,0,0,0,0,0,0,0,1.9818,1.9825,1.989,1.9891,1.9893,1.9936,1.9923,1.9978,1.9947,1.9926,1.9944,1.9943,1.998,1.9985,1.9998,2.0049,2.0051,2.0016,2.0018,2.0019,2.002,0,0,0,0,0,0,0,1.9814,1.9823,1.9905,1.9891,1.9893,1.9893,1.9899,1.9934,1.9958,1.9928,1.9928,1.9936,1.9981,1.9995,1.9999,2.0052,2.0016,2.0019,2.0021,2.0022,2.0142,2.0143,0,0,0,0,0,0,1.9809,1.982,1.9904,1.9907,1.9853,1.9896,1.9903,1.9923,1.9958,1.9962,1.9936,1.9936,1.999,1.9996,2.0001,2.0053,2.0019,2.0022,2.0024,2.0141,2.0142,2.0143,0,0,0,0,0,0,1.9807,1.9817,1.9901,1.9864,1.9874,1.9899,1.9921,1.9925,1.9939,1.9964,1.9968,1.9947,1.9989,1.9997,2.0036,2.0054,2.0024,2.0027,2.0139,2.0141,2.0143,2.0154,0,0,0,0,0,0,1.9803,1.9816,1.9832,1.9864,1.9876,1.9935,1.9922,1.9927,1.9945,1.9945,1.9975,1.9979,1.9989,2.0031,2.0039,2.0058,2.0029,2.0138,2.014,2.0142,2.0152,2.0156,2.0159,0,0,0,0,0,1.9799,1.9831,1.9832,1.9843,1.9897,1.9936,1.9943,1.9956,1.9947,1.9963,1.9979,1.9978,2.0051,2.0035,2.0044,2.0065,2.0136,2.0139,2.0142,2.015,2.0155,2.0159,0,0,0,0,0,0,1.9798,1.9835,1.9837,1.9881,1.9906,1.9937,1.9957,1.996,1.9987,1.9985,1.9998,2.0005,2.0044,2.0058,2.004,2.0107,2.0093,2.0097,2.0096,2.0101,2.0104,2.01,2.0032,0,0,0,0,0,1.9803,1.9833,1.9863,1.9898,1.9911,1.9932,1.995,1.9958,1.9983,1.9993,2.0013,2.0037,2.0066,2.0084,2.0112,2.0155,2.0162,2.0173,2.0177,2.018,2.0183,2.0209,2.0215,2.0153,2.0153,2.0153,0,0,1.9812,1.9837,1.9854,1.9899,1.9919,1.995,1.9941,1.9973,1.9995,1.9998,2.0037,2.0052,2.008,2.0122,2.0141,2.0134,2.0203,2.0183,2.0185,2.0188,2.0212,2.0218,2.0224,2.0155,2.0154,2.0154,0,0,1.9846,1.9867,1.99,1.9922,1.9954,1.9968,1.9976,2.0008,2.0019,2.0058,2.0062,2.0088,2.0137,2.0157,2.0174,2.0219,2.0219,2.0228,2.0246,2.0271,2.0276,2.028,2.0297,2.0303,2.0231,2.0231,2.0231,0,1.9854,1.9901,1.9916,1.9949,1.9969,1.9975,2.0009,2.0028,2.0066,2.008,2.0073,2.0136,2.0155,2.0202,2.0214,2.0227,2.0237,2.0224,2.0274,2.0279,2.0283,2.03,2.0306,2.0232,2.0232,2.0232,2.0232,0,1.9909,1.9942,1.9965,2.0005,2.0027,2.0059,2.0079,2.01,2.0107,2.0122,2.0163,2.0187,2.022,2.0232,2.0238,2.0281,2.0277,2.0272,2.0258,2.029,2.0305,2.0312,2.0234,2.0233,2.0233,2.0233,0,0,1.9941,1.9992,2.0,2.0019,2.0056,2.0081,2.0115,2.015,2.0168,2.0195,2.0223,2.0266,2.0263,2.0282,2.029,2.0312,2.0348,2.0305,2.0306,2.0313,2.0399,2.0402,2.0409,2.0349,2.035,2.0351,2.0397,0,1.998,2.0041,2.0057,2.0109,2.014,2.0148,2.0178,2.0203,2.0219,2.0247,2.0264,2.0294,2.0287,2.0299,2.0321,2.0339,2.0365,2.0336,2.0375,2.0376,2.0368,2.0417,2.0421,2.0462,2.0403,2.0404,2.0404,0,2.0032,2.0063,2.0119,2.0155,2.0168,2.0195,2.0229,2.0256,2.0286,2.0296,2.0319,2.0326,2.0361,2.0346,2.0395,2.0375,2.0392,2.0404,2.0405,2.0409,2.0392,2.0423,2.0476,2.0482,2.0414,2.0413,2.0413,0,2.0051,2.0107,2.0148,2.0164,2.0206,2.0225,2.0243,2.0272,2.0293,2.0323,2.0337,2.037,2.0387,2.0413,2.0428,2.0416,2.0477,2.0463,2.0486,2.0486,2.0498,2.0497,2.0555,2.0508,2.0508,2.0508,2.0508,0,2.0092,2.0126,2.0158,2.0183,2.0222,2.024,2.0277,2.0296,2.0322,2.0351,2.0359,2.0386,2.0405,2.0434,2.0447,2.0486,2.0494,2.0503,2.0506,2.0502,2.0501,2.0513,2.0511,2.051,2.051,2.0509,2.0509,0,2.012,2.0142,2.0188,2.0225,2.0236,2.0263,2.0294,2.0319,2.0336,2.0373,2.0382,2.0408,2.0443,2.0462,2.0505,2.0514,2.0558,2.0559,2.0549,2.055,2.0573,2.057,2.064,2.0651,2.0597,2.0598,2.0598,0,2.0144,2.0171,2.0213,2.0234,2.0253,2.0286,2.0309,2.0328,2.0351,2.0389,2.0409,2.0445,2.0475,2.0531,2.0553,2.0587,2.0589,2.0611,2.0594,2.059,2.059,2.0589,2.0592,2.0614,2.0615,2.0615,2.0615,0,2.0186,2.0197,2.023,2.0267,2.0294,2.0324,2.0353,2.0369,2.0394,2.0419,2.0456,2.048,2.0526,2.0562,2.0598,2.0616,2.062,2.0621,2.0628,2.0625,2.0618,2.0623,2.0558,2.0619,2.0619,2.0618,2.0618,2.0618,2.0214,2.0239,2.0273,2.031,2.0335,2.0362,2.0389,2.041,2.0442,2.0483,2.0492,2.0532,2.0562,2.0612,2.0631,2.0662,2.0657,2.0668,2.067,2.0673,2.0674,2.0614,2.0668,2.0668,2.0668,2.0668,2.0668,0,2.0257,2.028,2.0314,2.0356,2.0385,2.0389,2.0422,2.0446,2.0482,2.0511,2.0542,2.0585,2.0621,2.0647,2.0684,2.0704,2.0707,2.0713,2.0711,2.0716,2.0676,2.0666,2.071,2.071,2.071,2.071,2.071,2.071,2.0283,2.0326,2.0341,2.0397,2.042,2.0461,2.048,2.0506,2.053,2.0579,2.061,2.0627,2.0656,2.0695,2.0728,2.0735,2.0748,2.0754,2.0761,2.0723,2.0718,2.0714,2.0705,2.0756,2.0757,2.0799,2.0799,2.0799]}]]